CZ-6A DEB

Satellite information

Favourite Embed

Satellite Type and Status

DEBRISIN ORBIT

Key statistics

Satellite CZ-6A DEB at a glance.

Uptime

495

Days in orbit

Revolutions

≈ 14.3

Per day

Orbit

LEO

Low Earth Orbit

Inclination

89.1

Latest

Satellite identification and parameters

Extended collection of information and parameters for CZ-6A DEB.

Object identification

Identified? True

Debris? True

Object name: CZ-6A DEB

International designator: 2024-140WC

Object number (NORAD): 61363

Object ID (CCSDS): 61363

Country: PEOPLES REPUBLIC OF CHINA (PRC)

Current information (Y/N): Y

RCS size: SMALL

Orbital parameters

Period: 100.99 minutes

Inclination: 89.0708 deg

SMA: 7183.66 km

Apoapsis: 833.222 km

Periapsis: 777.829 km

RAAN: 299.3875 deg

Eccentricy: 0.0038555

Argument of periapsis: 13.2102 deg

Mean anomaly: 347.0091 deg

Mean motion: 14.25883664 rev/day

Mean motion (dot): 0.00003256 rev/day2

B* drag term: 0.0013518 1/REarth

Two-line elements (TLE)

Creation date: Dec. 12, 2025, 7:26 a.m.

Reference frame: TEME

Reference center: EARTH

Epoch: Dec. 11, 2025, 8:25 p.m. UTC

TLE line 0: 0 CZ-6A DEB

TLE line 1: 1 61363U 24140WC 25345.85137627 .00003256 00000-0 13518-2 0 9994

TLE line 2: 2 61363 89.0708 299.3875 0038555 13.2102 347.0091 14.25883664 66127

Live tracking on map

Real-time ground track for satellite CZ-6A DEB.

In-orbit conjunctions

A list of the most updated potential collisions computed for object CZ-6A DEB.

Target Orbit TCA Probability of collision Miss distance Type
COSMOS 2082 LEO 2025-04-07 12:49:26 0.0002626742 71.0 (m) PAYLOAD
CZ-6A DEB LEO 2025-03-20 18:14:50 0.000110031 209.0 (m) DEBRIS
NOAA 16 DEB SSO 2025-01-19 22:03:46 0.0002119947 580.0 (m) DEBRIS
CZ-6A DEB SSO 2025-01-13 14:56:19 0.0003604608 562.0 (m) DEBRIS
SL-16 R/B LEO 2025-01-12 00:41:32 0.0001734198 733.0 (m) ROCKET BODY

Associated space launch

18 Low Earth Orbit communication satellites with Ku, Q and V band payloads for the G60 constellation operated by Shanghai Spacecom Satellite Technology (SSST) with funding backed by the Shanghai local government. Initial constellation will consist of 1296 satellites by 2027 with long term plans to expand it to 12000 satellites.

CZ-6A DEB was lifted into orbit during the mission ‘Long March 6A | G60 Polar Group 01’, on board a Long March 6A space rocket.

The launch took place on Aug. 6, 2024, 6:42 a.m. from Launch Complex 9A.

For more information about the launch, click the button.

Launch to space Long March 6A | G60 Polar Group 01
Long March 6A | G60 Polar Group 01

Agency: N/A

Status: Launch Successful

Launch date: Aug. 6, 2024, 6:42 a.m. UTC

Rocket: Long March 6A

Launch pad: Launch Complex 9A

Location: Taiyuan Satellite Launch Center, People's Republic of China

...

Latest news about this satellite

News about space launch
Brightness of first Chinese broadband constellation satellites alarms astronomers

The first satellites of a Chinese broadband constellation are significantly brighter than those of Western systems, posing a new challenge for astronomers.

News about space launch
Chinese rocket stage breaks up into cloud of more than 700 pieces of space debris

HELSINKI — A Chinese Long March 6A rocket’s upper stage has fragmented into a cloud of over 700 pieces of space debris, adding to concerns about long-term orbital safety. China […]

News about space launch
China's Thousand Sails Megaconstellation Kicks Off with Dangerous Debris Field

China's Thousand Sails Megaconstellation Kicks Off with Dangerous Debris Field


Newsletter sign-up

Weekly statistics, charts and insights to help you stay on top of the space industry.